THOR ABLESTAR DEB, 252

Orbit data source: Space-Track

THOR ABLESTAR DEB, 252 is space debris in LEO originally from a launch on Thu, 29 Jun 1961 UTC launched from the Air Force Eastern Test Range (AFETR). Debris objects in space refer to the collection of defunct objects orbiting the Earth. Examples of debris include non-operational satellites, rocket bodies, and fragments generated from explosions, collisions, or faulty payload assembly.

Loading next visibility...
Identifier
252, 1961-015CD
Orbit
LEO
Country
Flag of USUS
Related business
Manufacturer
Unknown
Mission
Spacecraft
Bus & Motor
Unknown
Mass
Unknown
Launch date (UTC)
1961-06-29 (65 years ago)
Launch vehicle
Unknown
Launch site
Air Force Eastern Test Range (AFETR)
Object type
Payload
Rocket body
Debris
Shape & HBR
Unknown shape, 0.4 m
Radar Cross Section
Small (<0.1 m²)

Expand to show TLE details & history
Last TLE update: 17 hours ago

TLE from 17 hours ago
0 THOR ABLESTAR DEB
1   252U 61015CD  26036.69994451  .00000333  00000-0  39961-3 0  9996
2   252  67.0784 137.1807 0059127 295.9071 176.2874 13.77745413233215
Epoch: 2026-02-05T16:47Z
TLE epoch observation values (Epoch: 2026-02-05T16:47:55.205Z)
Latitude
58.60228°
Longitude
-114.21796°
Altitude
1,024.353 km
Speed
7.324 km/s
True Right ascension
18h 14m 26s
True Declination
58° 27' 17"
Sunlit
Object was in daylight at epoch
Visualization orbit readout
Latitude
Unknown
Longitude
Unknown
Altitude
Unknown
Speed
Unknown
Apparent Right ascension
Unknown
Apparent Declination
Unknown
Sunlit
N/A
Visualization observer readout
Local Sidereal Time
12:23:33
Azimuth
Unknown
Elevation
Unknown
Doppler factor
Unknown
Orbital elements
Apogee altitude
1,013.715 km
Perigee altitude
926.818 km
Semi-major axis
7,348.403 km
Eccentricity
0.00591
Inclination
67.0784°
RAAN
137.1807°
Arg. of periapsis
295.9071°
True anomaly
176.33095°
Mean anomaly
176.2874°
Eccentric anomaly
176.30921°
Mean motion
3.44551 °/min
Orbital period
104.48 mins
BSTAR
0.00039961
Loading maneuver chart data...
Computing Atmospheric mass density...

Documentation

Showing up to 5 results
|